Strait of Georgia - north of Nanaimo: Past 24 Hour Conditions

 

Saturna Island

12:00 AM PDT 19 September 2014
This table is a summary of hourly weather conditions for the past 24 hours.
Date / Time
(PDT)
Wind(knots) Conditions Visibility(km) Pressure(kPa) Air tempC) Relative humidity(%) Dew pointC)
19 September 2014
0:00 SW 10 N/A N/A 101.3 15 90 13
18 September 2014
23:00 WSW 3 N/A N/A 101.3 15 89 13
22:00 W 3 N/A N/A 101.3 16 88 14
21:00 SW 9 N/A N/A 101.3 16 86 14
20:00 WSW 6 N/A N/A 101.1 16 87 13
19:00 SW 14 gust 19 N/A N/A 101.1 15 88 13
18:00 SW 9 N/A N/A 101.1 15 86 13
17:00 SW 11 N/A N/A 101.0 15 85 13
16:00 WSW 4 N/A N/A 101.0 16 86 13
15:00 SW 6 N/A N/A 101.0 16 84 13
14:00 WSW 6 N/A N/A 101.0 16 83 13
13:00 WSW 10 N/A N/A 100.9 15 85 13
12:00 WSW 10 N/A N/A 100.9 15 88 13
11:00 WSW 12 N/A N/A 100.8 14 90 13
10:00 WSW 13 N/A N/A 100.8 14 93 13
9:00 WSW 14 N/A N/A 100.7 15 92 13
8:00 SW 8 N/A N/A 100.7 14 93 13
7:00 WSW 10 N/A N/A 100.6 14 94 13
6:00 WSW 8 N/A N/A 100.6 14 93 12
5:00 WSW 6 N/A N/A 100.6 14 93 13
4:00 SW 7 N/A N/A 100.6 14 92 13
3:00 WSW 5 N/A N/A 100.6 14 91 13
2:00 WSW 9 N/A N/A 100.7 14 91 13
1:00 WSW 7 N/A N/A 100.7 15 91 13
0:00 SSE 5 N/A N/A 100.7 14 90 12
 
Map of Pacific - Georgia Basin marine weather areas Tsawwassen Ferry Terminal Sentry Shoal - 46131 Halibut Bank - 46146 La Perouse Bank - 46206 Discovery Island Esquimalt Harbour Kelp Reefs Malahat Race Rocks Lightstation Saturna Island Sheringham Point University of Victoria Victoria Gonzales Victoria Int'l Airport Ballenas Islands Campbell River Airport Comox Airport Entrance Island Fanny Island Nanaimo Airport Sisters Islets Estevan Point Tofino Airport Grief Point Powell River Airport Sechelt Point Atkinson Sand Heads Lightstation Vancouver Harbour Vancouver Int'l Airport West Vancouver Port Alberni Howe Sound - Pam Rocks Squamish Airport